📊 Raw Sensor Data

Showing records 50451 to 50475 of 85,134 total

ID Distance (ft) Battery V Battery A Int Temp (°F) Int Humid (%) Ext Temp (°F) Solar V RSSI SNR Time Stamp
34696 15.6 4.02 5 77 38 66 5.10 -73 7 03/11/2025 03:45 PM
34695 15.6 4.01 5 77 38 68 5.10 -74 8 03/11/2025 03:30 PM
34694 15.6 4.01 5 78 36 68 5.10 -74 8 03/11/2025 03:00 PM
34693 15.7 4.01 6 78 36 66 5.10 -75 8 03/11/2025 02:45 PM
34692 15.6 4.01 0 78 36 68 5.10 -75 8 03/11/2025 02:30 PM
34691 15.6 4.04 5 78 36 68 5.10 -76 8 03/11/2025 02:15 PM
34690 15.6 4.00 0 77 36 70 5.10 -74 7 03/11/2025 02:00 PM
34689 15.6 4.13 5 76 36 69 5.10 -76 8 03/11/2025 01:45 PM
34688 15.7 4.01 5 74 37 69 5.10 -76 8 03/11/2025 01:30 PM
34687 15.6 4.00 5 73 37 68 5.10 -73 8 03/11/2025 01:15 PM
34686 15.6 4.00 5 73 36 66 5.10 -73 7 03/11/2025 01:00 PM
34685 15.6 4.00 5 72 37 68 5.10 -74 8 03/11/2025 12:45 PM
34684 15.6 4.02 5 72 36 68 5.10 -75 7 03/11/2025 12:30 PM
34683 15.6 4.00 5 71 36 66 5.10 -76 7 03/11/2025 12:15 PM
34682 15.7 4.00 0 71 36 64 5.10 -76 8 03/11/2025 12:00 PM
34681 15.6 4.00 0 69 36 68 5.10 -75 7 03/11/2025 11:45 AM
34680 15.7 4.00 0 69 35 66 5.10 -77 8 03/11/2025 11:30 AM
34679 15.7 4.13 0 68 35 68 5.10 -77 8 03/11/2025 11:15 AM
34678 15.7 4.00 6 66 35 68 5.10 -76 7 03/11/2025 11:00 AM
34677 15.7 4.01 5 64 34 66 5.10 -77 7 03/11/2025 10:45 AM
34676 15.8 4.00 0 62 34 65 5.10 -76 7 03/11/2025 10:30 AM
34675 15.8 4.00 0 60 34 61 5.10 -77 8 03/11/2025 10:15 AM
34674 -- 4.00 0 57 34 60 5.10 -76 8 03/11/2025 10:01 AM
34673 15.7 4.00 6 55 35 58 5.10 -76 7 03/11/2025 09:45 AM
34672 15.7 4.00 6 53 35 57 5.10 -77 8 03/11/2025 09:30 AM